TimeEST,TemperatureF,Dew PointF,Humidity,Sea Level PressureIn,VisibilityMPH,Wind Direction,Wind SpeedMPH,Gust SpeedMPH,PrecipitationIn,Events,Conditions,WindDirDegrees,DateUTC
12:53 AM,12.9,-0.9,54,30.14,10.0,NE,6.9,-,N/A,,Overcast,50,2013-01-18 05:53:00
1:53 AM,12.0,-0.9,56,30.14,10.0,NE,10.4,-,N/A,,Overcast,40,2013-01-18 06:53:00
2:53 AM,10.9,-2.0,56,30.19,10.0,NE,6.9,-,N/A,,Partly Cloudy,40,2013-01-18 07:53:00
3:53 AM,8.1,-2.9,61,30.20,10.0,NNE,3.5,-,N/A,,Mostly Cloudy,20,2013-01-18 08:53:00
4:53 AM,5.0,-7.1,58,30.23,10.0,North,4.6,-,N/A,,Clear,10,2013-01-18 09:53:00
5:53 AM,3.0,-8.0,60,30.25,10.0,NNE,5.8,-,N/A,,Clear,20,2013-01-18 10:53:00
6:53 AM,1.9,-9.0,60,30.30,10.0,Calm,Calm,-,N/A,,Clear,0,2013-01-18 11:53:00
7:53 AM,-0.9,-8.0,72,30.34,10.0,Calm,Calm,-,N/A,,Clear,0,2013-01-18 12:53:00
8:53 AM,6.1,-5.1,60,30.36,10.0,Calm,Calm,-,N/A,,Clear,0,2013-01-18 13:53:00
9:53 AM,9.0,-9.0,44,30.37,10.0,Calm,Calm,-,N/A,,Clear,0,2013-01-18 14:53:00
10:53 AM,12.0,-9.9,37,30.36,10.0,Calm,Calm,-,N/A,,Clear,0,2013-01-18 15:53:00
11:53 AM,16.0,-8.0,34,30.33,10.0,WNW,5.8,-,N/A,,Clear,290,2013-01-18 16:53:00
12:53 PM,18.0,-6.0,35,30.32,10.0,WNW,8.1,19.6,N/A,,Clear,290,2013-01-18 17:53:00
1:53 PM,19.0,-6.0,33,30.35,10.0,West,12.7,23.0,N/A,,Clear,280,2013-01-18 18:53:00
2:53 PM,19.9,-7.1,30,30.36,10.0,WNW,11.5,18.4,N/A,,Clear,290,2013-01-18 19:53:00
3:53 PM,19.9,-7.1,30,30.35,10.0,West,6.9,-,N/A,,Clear,260,2013-01-18 20:53:00
4:53 PM,16.0,-5.1,39,30.37,10.0,Calm,Calm,-,N/A,,Clear,0,2013-01-18 21:53:00
5:53 PM,9.0,-0.9,64,30.39,10.0,Calm,Calm,-,N/A,,Clear,0,2013-01-18 22:53:00
6:53 PM,10.9,-2.0,56,30.40,10.0,Calm,Calm,-,N/A,,Clear,0,2013-01-18 23:53:00
7:53 PM,8.1,-0.9,67,30.40,10.0,Calm,Calm,-,N/A,,Clear,0,2013-01-19 00:53:00
8:53 PM,8.1,1.0,73,30.39,10.0,Calm,Calm,-,N/A,,Clear,0,2013-01-19 01:53:00
9:53 PM,8.1,1.9,76,30.37,10.0,Calm,Calm,-,N/A,,Mostly Cloudy,0,2013-01-19 02:53:00
10:53 PM,9.0,3.0,77,30.34,10.0,Calm,Calm,-,N/A,,Mostly Cloudy,0,2013-01-19 03:53:00
11:53 PM,10.9,5.0,77,30.31,9.0,Calm,Calm,-,N/A,,Overcast,0,2013-01-19 04:53:00